H1 CPF 2 NER 2022 10 9 9 282 01 glonass107 H2 0706501 9107 32393 2022 10 9 0 0 0 2022 10 12 23 45 0 900 1 1 0 0 0 1 H9 10 0 59861 0.00000 0 19531766.476 7112375.602 14775256.188 10 0 59861 900.00000 0 20908757.412 8054129.521 12181835.949 10 0 59861 1800.00000 0 22073600.529 8706737.182 9351658.151 10 0 59861 2700.00000 0 22972090.412 9091770.793 6339745.245 10 0 59861 3600.00000 0 23557607.697 9241489.509 3204642.519 10 0 59861 4500.00000 0 23793122.651 9197220.343 7276.520 10 0 59861 5400.00000 0 23652814.475 9007363.263 -3190232.318 10 0 59861 6300.00000 0 23123238.049 8725106.001 -6325779.306 10 0 59861 7200.00000 0 22203988.946 8405946.144 -9338483.321 10 0 59861 8100.00000 0 20907838.782 8105126.153 -12169869.031 10 0 59861 9000.00000 0 19260335.155 7875090.311 -14765000.420 10 0 59861 9900.00000 0 17298882.998 7763071.425 -17073543.561 10 0 59861 10800.00000 0 15071345.713 7808909.397 -19050738.371 10 0 59861 11700.00000 0 12634224.326 8043193.718 -20658261.022 10 0 59861 12600.00000 0 10050490.366 8485808.145 -21864960.914 10 0 59861 13500.00000 0 7387162.177 9144938.875 -22647458.740 10 0 59861 14400.00000 0 4712724.742 10016588.026 -22990594.820 10 0 59861 15300.00000 0 2094499.362 11084613.191 -22887719.629 10 0 59861 16200.00000 0 -403928.634 12321291.931 -22340821.385 10 0 59861 17100.00000 0 -2725118.616 13688388.293 -21360488.374 10 0 59861 18000.00000 0 -4819920.910 15138677.555 -19965706.658 10 0 59861 18900.00000 0 -6649272.620 16617866.333 -18183496.715 10 0 59861 19800.00000 0 -8185569.519 18066828.613 -16048395.390 10 0 59861 20700.00000 0 -9413557.751 19424064.877 -13601792.528 10 0 59861 21600.00000 0 -10330709.136 20628281.901 -10891134.300 10 0 59861 22500.00000 0 -10947065.149 21620985.433 -7969007.917 10 0 59861 23400.00000 0 -11284556.778 22348976.946 -4892124.970 10 0 59861 24300.00000 0 -11375829.495 22766649.363 -1720222.716 10 0 59861 25200.00000 0 -11262623.372 22837984.712 1485095.509 10 0 59861 26100.00000 0 -10993777.180 22538168.901 4661558.026 10 0 59861 27000.00000 0 -10622941.344 21854754.783 7747437.141 10 0 59861 27900.00000 0 -10206097.018 20788323.535 10682752.071 10 0 59861 28800.00000 0 -9798986.787 19352615.510 13410438.485 10 0 59861 29700.00000 0 -9454566.345 17574124.089 15877461.459 10 0 59861 30600.00000 0 -9220585.569 15491168.599 18035849.827 10 0 59861 31500.00000 0 -9137401.850 13152484.419 19843631.483 10 0 59861 32400.00000 0 -9236118.744 10615388.542 21265651.348 10 0 59861 33300.00000 0 -9537129.070 7943596.632 22274256.149 10 0 59861 34200.00000 0 -10049124.517 5204782.229 22849832.740 10 0 59861 35100.00000 0 -10768614.054 2467979.291 22981189.705 10 0 59861 36000.00000 0 -11679972.007 -199064.225 22665774.998 10 0 59861 36900.00000 0 -12756014.273 -2732472.072 21909725.424 10 0 59861 37800.00000 0 -13959078.965 -5074657.726 20727747.118 10 0 59861 38700.00000 0 -15242566.491 -7176474.770 19142829.199 10 0 59861 39600.00000 0 -16552874.647 -8999010.803 17185796.102 10 0 59861 40500.00000 0 -17831647.578 -10514951.085 14894707.106 10 0 59861 41400.00000 0 -19018244.169 -11709456.088 12314114.602 10 0 59861 42300.00000 0 -20052321.894 -12580517.412 9494195.492 10 0 59861 43200.00000 0 -20876427.224 -13138778.567 6489772.669 10 0 59861 44100.00000 0 -21438483.258 -13406829.582 3359245.782 10 0 59861 45000.00000 0 -21694069.424 -13418006.541 163452.505 10 0 59861 45900.00000 0 -21608396.867 -13214748.071 -3035517.148 10 0 59861 46800.00000 0 -21157896.015 -12846579.424 -6175529.902 10 0 59861 47700.00000 0 -20331349.131 -12367810.433 -9195617.675 10 0 59861 48600.00000 0 -19130520.024 -11835045.486 -12037161.557 10 0 59861 49500.00000 0 -17570254.161 -11304611.439 -14645028.190 10 0 59861 50400.00000 0 -15678044.804 -10830012.468 -16968636.435 10 0 59861 51300.00000 0 -13493083.103 -10459519.470 -18962933.933 10 0 59861 52200.00000 0 -11064831.412 -10233995.625 -20589265.194 10 0 59861 53100.00000 0 -8451179.033 -10185049.550 -21816114.960 10 0 59861 54000.00000 0 -5716256.483 -10333593.531 -22619713.307 10 0 59861 54900.00000 0 -2927998.400 -10688867.260 -22984491.483 10 0 59861 55800.00000 0 -155555.440 -11247968.003 -22903380.322 10 0 59861 56700.00000 0 2533338.578 -11995907.023 -22377945.908 10 0 59861 57600.00000 0 5074936.212 -12906190.215 -21418360.056 10 0 59861 58500.00000 0 7411877.173 -13941899.111 -20043206.062 10 0 59861 59400.00000 0 9495321.867 -15057227.618 -18279123.151 10 0 59861 60300.00000 0 11286730.176 -16199410.768 -16160295.835 10 0 59861 61200.00000 0 12759212.380 -17310965.297 -13727797.395 10 0 59861 62100.00000 0 13898396.816 -18332148.585 -11028799.404 10 0 59861 63000.00000 0 14702778.796 -19203533.078 -8115661.824 10 0 59861 63900.00000 0 15183536.783 -19868588.052 -5044920.832 10 0 59861 64800.00000 0 15363824.167 -20276159.953 -1876193.588 10 0 59861 65700.00000 0 15277566.928 -20382746.400 1328978.957 10 0 59861 66600.00000 0 14967818.316 -20154467.327 4508328.514 10 0 59861 67500.00000 0 14484740.488 -19568649.288 7600071.700 10 0 59861 68400.00000 0 13883298.827 -18614955.054 10544114.021 10 0 59861 69300.00000 0 13220766.898 -17296009.788 13283221.639 10 0 59861 70200.00000 0 12554148.049 -15627496.235 15764137.642 10 0 59861 71100.00000 0 11937623.133 -13637713.739 17938620.763 10 0 59861 72000.00000 0 11420132.684 -11366618.535 19764385.956 10 0 59861 72900.00000 0 11043196.079 -8864384.496 21205928.491 10 0 59861 73800.00000 0 10839060.090 -6189543.621 22235215.550 10 0 59861 74700.00000 0 10829255.234 -3406783.188 22832231.932 10 0 59861 75600.00000 0 11023621.011 -584490.697 22985369.486 10 0 59861 76500.00000 0 11419841.341 2207851.813 22691652.829 10 0 59861 77400.00000 0 12003509.927 4902316.116 21956797.073 10 0 59861 78300.00000 0 12748722.989 7435109.325 20795096.480 10 0 59861 79200.00000 0 13619174.568 9748981.782 19229146.142 10 0 59861 80100.00000 0 14569708.369 11795361.736 17289401.964 10 0 59861 81000.00000 0 15548260.853 13536128.657 15013587.386 10 0 59861 81900.00000 0 16498113.676 14944952.172 12445958.178 10 0 59861 82800.00000 0 17360360.379 16008141.593 9636439.614 10 0 59861 83700.00000 0 18076483.098 16724971.752 6639652.854 10 0 59861 84600.00000 0 18590930.248 17107472.728 3513849.613 10 0 59861 85500.00000 0 18853586.029 17179693.640 319776.296 10 0 59862 0.00000 0 18822027.128 16976472.932 -2880509.650 10 0 59862 900.00000 0 18463470.897 16541768.116 -6024849.374 10 0 59862 1800.00000 0 17756332.560 15926616.943 -9052189.878 10 0 59862 2700.00000 0 16691325.389 15186816.684 -11903770.872 10 0 59862 3600.00000 0 15272057.117 14380420.452 -14524263.662 10 0 59862 4500.00000 0 13515097.219 13565156.593 -16862841.663 10 0 59862 5400.00000 0 11449511.772 12795880.217 -18874161.788 10 0 59862 6300.00000 0 9115884.810 12122164.144 -20519238.193 10 0 59862 7200.00000 0 6564866.503 11586130.427 -21766192.071 10 0 59862 8100.00000 0 3855307.881 11220613.225 -22590863.760 10 0 59862 9000.00000 0 1052058.806 11047729.729 -22977276.092 10 0 59862 9900.00000 0 -1776480.269 11077918.733 -22917940.627 10 0 59862 10800.00000 0 -4560952.303 11309486.858 -22414001.356 10 0 59862 11700.00000 0 -7233677.047 11728681.338 -21475213.267 10 0 59862 12600.00000 0 -9731215.702 12310286.380 -20119756.113 10 0 59862 13500.00000 0 -11996761.634 13018718.371 -18373886.643 10 0 59862 14400.00000 0 -13982258.966 13809574.354 -16271435.400 10 0 59862 15300.00000 0 -15650161.794 14631569.252 -13853157.113 10 0 59862 16200.00000 0 -16974761.610 15428780.889 -11165946.486 10 0 59862 17100.00000 0 -17943028.209 16143108.718 -8261933.768 10 0 59862 18000.00000 0 -18554929.406 16716842.903 -5197477.136 10 0 59862 18900.00000 0 -18823216.669 17095235.395 -2032071.007 10 0 59862 19800.00000 0 -18772686.072 17228964.225 1172808.705 10 0 59862 20700.00000 0 -18438946.043 17076386.391 4354899.755 10 0 59862 21600.00000 0 -17866744.225 16605483.403 7452365.677 10 0 59862 22500.00000 0 -17107924.450 15795416.283 10405000.827 10 0 59862 23400.00000 0 -16219100.472 14637623.257 13155404.344 10 0 59862 24300.00000 0 -15259145.138 13136412.567 15650099.715 10 0 59862 25200.00000 0 -14286601.408 11309024.114 17840577.792 10 0 59862 26100.00000 0 -13357124.887 9185156.091 19684242.625 10 0 59862 27000.00000 0 -12521066.064 6805975.196 21145241.612 10 0 59862 27900.00000 0 -11821294.373 4222650.706 22195163.865 10 0 59862 28800.00000 0 -11291355.926 1494472.728 22813593.269 10 0 59862 29700.00000 0 -10954042.454 -1313367.812 22988505.682 10 0 59862 30600.00000 0 -10820431.676 -4132245.730 22716502.727 10 0 59862 31500.00000 0 -10889439.333 -6892712.641 22002877.710 10 0 59862 32400.00000 0 -11147901.563 -9527144.540 20861512.459 10 0 59862 33300.00000 0 -11571183.955 -11972316.355 19314606.999 10 0 59862 34200.00000 0 -12124291.421 -14171796.843 17392247.224 10 0 59862 35100.00000 0 -12763431.827 -16078064.729 15131818.809 10 0 59862 36000.00000 0 -13437967.233 -17654258.580 12577278.591 10 0 59862 36900.00000 0 -14092670.043 -18875488.047 9778297.590 10 0 59862 37800.00000 0 -14670188.444 -19729652.647 6789292.335 10 0 59862 38700.00000 0 -15113616.583 -20217734.788 3668363.537 10 0 59862 39600.00000 0 -15369060.358 -20353555.904 476163.132 10 0 59862 40500.00000 0 -15388089.946 -20163007.186 -2725287.840 10 0 59862 41400.00000 0 -15129974.874 -19682788.545 -5873807.078 10 0 59862 42300.00000 0 -14563606.799 -18958710.053 -8908260.521 10 0 59862 43200.00000 0 -13669028.361 -18043628.541 -11769749.681 10 0 59862 44100.00000 0 -12438503.196 -16995107.120 -14402753.572 10 0 59862 45000.00000 0 -10877081.632 -15872896.828 -16756202.975 10 0 59862 45900.00000 0 -9002637.744 -14736346.750 -18784466.555 10 0 59862 46800.00000 0 -6845375.613 -13641851.547 -20448230.169 10 0 59862 47700.00000 0 -4446824.726 -12640443.428 -21715252.985 10 0 59862 48600.00000 0 -1858365.591 -11775629.192 -22560986.541 10 0 59862 49500.00000 0 860654.047 -11081562.442 -22969045.565 10 0 59862 50400.00000 0 3645135.083 -10581626.929 -22931522.054 10 0 59862 51300.00000 0 6426684.222 -10287489.744 -22449137.042 10 0 59862 52200.00000 0 9136211.752 -10198663.481 -21531227.327 10 0 59862 53100.00000 0 11706563.253 -10302595.382 -20195567.320 10 0 59862 54000.00000 0 14075077.273 -10575279.522 -18468029.126 10 0 59862 54900.00000 0 16185963.790 -10982366.388 -16382086.807 10 0 59862 55800.00000 0 17992405.403 -11480723.400 -13978173.738 10 0 59862 56700.00000 0 19458294.501 -12020380.970 -11302904.671 10 0 59862 57600.00000 0 20559534.548 -12546782.407 -8408176.831 10 0 59862 58500.00000 0 21284851.436 -13003242.968 -5350166.908 10 0 59862 59400.00000 0 21636081.280 -13333514.247 -2188243.001 10 0 59862 60300.00000 0 21627922.857 -13484345.345 1016187.573 10 0 59862 61200.00000 0 21287165.250 -13407932.130 4200872.031 10 0 59862 62100.00000 0 20651423.495 -13064150.256 7303923.987 10 0 59862 63000.00000 0 19767435.730 -12422476.636 10265029.462 10 0 59862 63900.00000 0 18688993.944 -11463517.024 13026622.937 10 0 59862 64800.00000 0 17474595.885 -10180073.953 15535010.191 10 0 59862 65700.00000 0 16184917.477 -8577708.604 17741415.600 10 0 59862 66600.00000 0 14880212.540 -6674771.603 19602933.233 10 0 59862 67500.00000 0 13617749.601 -4501900.045 21083363.099 10 0 59862 68400.00000 0 12449393.793 -2101000.493 22153916.319 10 0 59862 69300.00000 0 11419435.592 476240.654 22793775.567 10 0 59862 70200.00000 0 10562757.551 3170258.294 22990500.091 10 0 59862 71100.00000 0 9903415.820 5915842.979 22740267.580 10 0 59862 72000.00000 0 9453695.694 8644616.100 22047948.334 10 0 59862 72900.00000 0 9213680.435 11287643.598 20927010.288 10 0 59862 73800.00000 0 9171350.947 13778080.029 19399256.728 10 0 59862 74700.00000 0 9303211.571 16053733.319 17494401.664 10 0 59862 75600.00000 0 9575415.039 18059443.919 15249490.965 10 0 59862 76500.00000 0 9945338.562 19749179.666 12708180.346 10 0 59862 77400.00000 0 10363543.983 21087759.373 9919884.231 10 0 59862 78300.00000 0 10776038.552 22052133.785 6938812.056 10 0 59862 79200.00000 0 11126740.197 22632171.024 3822910.958 10 0 59862 80100.00000 0 11360042.399 22830914.471 632735.773 10 0 59862 81000.00000 0 11423369.591 22664303.261 -2569731.225 10 0 59862 81900.00000 0 11269614.384 22160368.226 -5722287.445 10 0 59862 82800.00000 0 10859353.036 21357938.161 -8763719.925 10 0 59862 83700.00000 0 10162745.027 20304911.889 -11634994.249 10 0 59862 84600.00000 0 9161036.055 19056169.662 -14280399.161 10 0 59862 85500.00000 0 7847600.616 17671212.441 -16648624.588 10 0 59863 0.00000 0 6228479.913 16211628.779 -18693752.289 10 0 59863 900.00000 0 4322390.901 14738494.989 -20376141.466 10 0 59863 1800.00000 0 2160207.658 13309819.459 -21663190.093 10 0 59863 2700.00000 0 -216067.109 11978135.137 -22529961.719 10 0 59863 3600.00000 0 -2754796.386 10788342.260 -22959663.520 10 0 59863 4500.00000 0 -5396608.758 9775890.024 -22943968.191 10 0 59863 5400.00000 0 -8076625.976 8965372.502 -22483173.727 10 0 59863 6300.00000 0 -10726927.001 8369596.703 -21586198.255 10 0 59863 7200.00000 0 -13279147.372 7989161.033 -20270409.924 10 0 59863 8100.00000 0 -15667107.191 7812561.250 -18561294.838 10 0 59863 9000.00000 0 -17829359.628 7816819.046 -16491968.821 10 0 59863 9900.00000 0 -19711554.717 7968606.705 -14102541.789 10 0 59863 10800.00000 0 -21268520.756 8225820.452 -11439346.193 10 0 59863 11700.00000 0 -22465976.933 8539536.266 -8554043.717 10 0 59863 12600.00000 0 -23281805.850 8856265.717 -5502626.967 10 0 59863 13500.00000 0 -23706832.859 9120416.487 -2344335.098 10 0 59863 14400.00000 0 -23745079.549 9276853.394 859495.790 10 0 59863 15300.00000 0 -23413480.750 9273451.155 4046624.972 10 0 59863 16200.00000 0 -22741076.965 9063530.281 7155118.709 10 0 59863 17100.00000 0 -21767716.275 8608072.121 10124557.198 10 0 59863 18000.00000 0 -20542320.489 7877618.384 12897212.721 10 0 59863 18900.00000 0 -19120788.731 6853773.615 15419175.688 10 0 59863 19800.00000 0 -17563626.902 5530245.864 17641406.195 10 0 59863 20700.00000 0 -15933403.023 3913380.324 19520690.293 10 0 59863 21600.00000 0 -14292135.592 2022162.042 21020482.291 10 0 59863 22500.00000 0 -12698724.774 -112313.831 22111616.675 10 0 59863 23400.00000 0 -11206534.270 -2447883.333 22772875.894 10 0 59863 24300.00000 0 -9861225.124 -4932824.208 22991403.175 10 0 59863 25200.00000 0 -8698931.966 -7507773.662 22762952.483 10 0 59863 26100.00000 0 -7744857.710 -10107974.237 22091970.899 10 0 59863 27000.00000 0 -7012345.007 -12665754.972 20991511.879 10 0 59863 27900.00000 0 -6502462.636 -15113145.142 19482980.998 10 0 59863 28800.00000 0 -6204123.413 -17384512.070 17595719.038 10 0 59863 29700.00000 0 -6094727.744 -19419113.490 15366430.373 10 0 59863 30600.00000 0 -6141304.818 -21163458.358 12838467.585 10 0 59863 31500.00000 0 -6302102.426 -22573377.769 10060986.220 10 0 59863 32400.00000 0 -6528557.414 -23615719.836 7087986.123 10 0 59863 33300.00000 0 -6767562.629 -24269598.049 3977258.188 10 0 59863 34200.00000 0 -6963933.708 -24527141.305 789257.366 10 0 59863 35100.00000 0 -7062970.535 -24393714.913 -2414075.709 10 0 59863 36000.00000 0 -7013004.266 -23887604.057 -5570521.086 10 0 59863 36900.00000 0 -6767821.522 -23039173.904 -8618789.864 10 0 59863 37800.00000 0 -6288862.654 -21889542.544 -11499714.652 10 0 59863 38700.00000 0 -5547100.667 -20488823.307 -14157396.826 10 0 59863 39600.00000 0 -4524521.064 -18894010.950 -16540288.221 10 0 59863 40500.00000 0 -3215139.726 -17166600.866 -18602186.579 10 0 59863 41400.00000 0 -1625515.450 -15370041.263 -20303125.933 10 0 59863 42300.00000 0 225265.040 -13567124.922 -21610145.293 10 0 59863 43200.00000 0 2306129.800 -11817429.221 -22497921.558 10 0 59863 44100.00000 0 4575070.459 -10174910.712 -22949255.186 10 0 59863 45000.00000 0 6980654.401 -8685753.884 -22955399.872 10 0 59863 45900.00000 0 9463938.647 -7386562.893 -22516230.371 10 0 59863 46800.00000 0 11960707.121 -6302970.719 -21640245.472 10 0 59863 47700.00000 0 14403939.527 -5448722.847 -20344405.964 10 0 59863 48600.00000 0 16726410.419 -4825272.903 -18653810.444 10 0 59863 49500.00000 0 18863311.504 -4421906.385 -16601214.608 10 0 59863 50400.00000 0 20754788.780 -4216386.811 -14226402.633 10 0 59863 51300.00000 0 22348289.529 -4176096.697 -11575422.013 10 0 59863 52200.00000 0 23600621.588 -4259625.132 -8699695.871 10 0 59863 53100.00000 0 24479638.980 -4418734.853 -5655029.409 10 0 59863 54000.00000 0 24965483.358 -4600625.595 -2500529.295 10 0 59863 54900.00000 0 25051329.081 -4750397.799 702543.230 10 0 59863 55800.00000 0 24743600.373 -4813612.074 3891963.109 10 0 59863 56700.00000 0 24061651.263 -4738835.510 7005752.711 10 0 59863 57600.00000 0 23036921.524 -4480066.292 9983389.570 10 0 59863 58500.00000 0 21711603.999 -3998933.071 12766986.569 10 0 59863 59400.00000 0 20136879.334 -3266574.956 15302421.109 10 0 59863 60300.00000 0 18370792.312 -2265121.461 17540390.900 10 0 59863 61200.00000 0 16475859.154 -988708.649 19437375.431 10 0 59863 62100.00000 0 14516506.256 556012.699 20956484.324 10 0 59863 63000.00000 0 12556447.840 2349899.686 22068176.044 10 0 59863 63900.00000 0 10656112.355 4361870.997 22750833.044 10 0 59863 64800.00000 0 8870225.211 6549969.786 22991182.390 10 0 59863 65700.00000 0 7245648.619 8862892.450 22784553.810 10 0 59863 66600.00000 0 5819568.474 11241920.365 22134970.318 10 0 59863 67500.00000 0 4618103.406 13623174.792 21055069.684 10 0 59863 68400.00000 0 3655393.385 15940101.555 19565858.238 10 0 59863 69300.00000 0 2933205.124 18126082.274 17696301.711 10 0 59863 70200.00000 0 2441069.717 20117063.537 15482760.895 10 0 59863 71100.00000 0 2156945.554 21854094.504 12968282.930 10 0 59863 72000.00000 0 2048377.501 23285666.967 10201761.985 10 0 59863 72900.00000 0 2074102.251 24369760.180 7236985.666 10 0 59863 73800.00000 0 2186030.992 25075505.004 4131585.850 10 0 59863 74700.00000 0 2331524.541 25384397.858 945914.761 10 0 59863 75600.00000 0 2455863.736 25291013.938 -2258131.451 10 0 59863 76500.00000 0 2504809.674 24803190.293 -5418318.272 10 0 59863 77400.00000 0 2427144.697 23941671.636 -8473283.521 10 0 59863 78300.00000 0 2177085.977 22739234.453 -11363729.298 10 0 59863 79200.00000 0 1716469.115 21239326.809 -14033571.838 10 0 59863 80100.00000 0 1016609.080 19494281.476 -16431026.844 10 0 59863 81000.00000 0 59759.566 17563177.684 -18509609.557 10 0 59863 81900.00000 0 -1159891.162 15509441.154 -20229030.639 10 0 59863 82800.00000 0 -2635730.306 13398282.723 -21555971.113 10 0 59863 83700.00000 0 -4348757.699 11294082.153 -22464722.161 10 0 59863 84600.00000 0 -6268149.410 9257825.587 -22937678.186 10 0 59863 85500.00000 0 -8352325.198 7344702.697 -22965674.244 10 0 59864 0.00000 0 -10550476.241 5601962.695 -22548161.919 10 0 59864 900.00000 0 -12804491.949 4067116.491 -21693220.183 10 0 59864 1800.00000 0 -15051203.845 2766561.135 -20417401.646 10 0 59864 2700.00000 0 -17224858.279 1714679.670 -18745416.114 10 0 59864 3600.00000 0 -19259713.186 913455.385 -16709657.444 10 0 59864 4500.00000 0 -21092652.673 352614.863 -14349582.002 10 0 59864 5400.00000 0 -22665710.886 10293.247 -11710949.968 10 0 59864 6300.00000 0 -23928400.136 -145806.685 -8844943.349 10 0 59864 7200.00000 0 -24839745.986 -156810.856 -5807177.250 10 0 59864 8100.00000 0 -25369943.975 -70693.588 -2656623.097 10 0 59864 9000.00000 0 -25501568.198 59995.338 545535.532 10 0 59864 9900.00000 0 -25230280.546 180599.729 3737092.065 10 0 59864 10800.00000 0 -24565010.332 236917.139 6856027.767 10 0 59864 11700.00000 0 -23527596.273 177741.036 9841720.283 10 0 59864 12600.00000 0 -22151905.474 -42723.442 12636125.770 10 0 59864 13500.00000 0 -20482466.114 -462673.322 15184911.175 10 0 59864 14400.00000 0 -18572671.040 -1110844.796 17438514.160 10 0 59864 15300.00000 0 -16482627.555 -2005053.182 19353109.713 10 0 59864 16200.00000 0 -14276743.454 -3151198.688 20891464.475 10 0 59864 17100.00000 0 -12021150.309 -4542781.115 22023662.192 10 0 59864 18000.00000 0 -9781071.740 -6160945.133 22727686.198 10 0 59864 18900.00000 0 -7618246.433 -7975055.402 22989847.834 10 0 59864 19800.00000 0 -5588513.199 -9943778.641 22805052.611 10 0 59864 20700.00000 0 -3739658.457 -12016628.226 22176899.088 10 0 59864 21600.00000 0 -2109615.346 -14135907.653 21117608.600 10 0 59864 22500.00000 0 -725088.796 -16238972.303 19647787.153 10 0 59864 23400.00000 0 399336.859 -18260715.424 17796024.022 10 0 59864 24300.00000 0 1261571.616 -20136174.802 15598334.715 10 0 59864 25200.00000 0 1871860.448 -21803151.272 13097458.954 10 0 59864 26100.00000 0 2252098.886 -23204729.528 10342027.308 10 0 59864 27000.00000 0 2434653.708 -24291595.657 7385612.714 10 0 59864 27900.00000 0 2460739.802 -25024054.253 4285685.452 10 0 59864 28800.00000 0 2378422.962 -25373660.450 1102492.332 10 0 59864 29700.00000 0 2240334.225 -25324398.506 -2102117.730 10 0 59864 30600.00000 0 2101193.472 -24873357.623 -5265898.433 10 0 59864 31500.00000 0 2015247.942 -24030876.908 -8327417.091 10 0 59864 32400.00000 0 2033734.806 -22820153.791 -11227248.042 10 0 59864 33300.00000 0 2202475.671 -21276332.735 -13909125.055 10 0 59864 34200.00000 0 2559705.091 -19445112.821 -16321030.257 10 0 59864 35100.00000 0 3134225.116 -17380932.855 -18416198.762 10 0 59864 36000.00000 0 3943963.961 -15144809.936 -20154019.967 10 0 59864 36900.00000 0 4994999.787 -12801921.749 -21500818.673 10 0 59864 37800.00000 0 6281091.057 -10419033.024 -22430501.716 10 0 59864 38700.00000 0 7783733.790 -8061872.736 -22925058.375 10 0 59864 39600.00000 0 9472744.050 -5792570.427 -22974905.552 10 0 59864 40500.00000 0 11307342.290 -3667257.209 -22579071.594 10 0 59864 41400.00000 0 13237695.406 -1733930.043 -21745215.449 10 0 59864 42300.00000 0 15206853.265 -30666.990 -20489480.761 10 0 59864 43200.00000 0 17153000.128 1415733.492 -18836187.426 10 0 59864 44100.00000 0 19011928.177 2590633.628 -16817365.973 10 0 59864 45000.00000 0 20719630.739 3491921.923 -14472143.099 10 0 59864 45900.00000 0 22214907.630 4129848.883 -11845989.421 10 0 59864 46800.00000 0 23441874.086 4526340.467 -8989843.221 10 0 59864 47700.00000 0 24352268.302 4713818.660 -5959126.566 10 0 59864 48600.00000 0 24907460.741 4733579.354 -2812672.424 10 0 59864 49500.00000 0 25080080.469 4633796.429 388416.659 10 0 59864 50400.00000 0 24855189.624 4467236.786 3581956.012 10 0 59864 51300.00000 0 24230955.954 4288783.501 6705889.154 10 0 59864 52200.00000 0 23218794.426 4152872.575 9699497.005 10 0 59864 53100.00000 0 21842971.242 4110952.443 12504581.901 10 0 59864 54000.00000 0 20139686.270 4209074.628 15066602.894 10 0 59864 54900.00000 0 18155671.893 4485718.368 17335739.811 10 0 59864 55800.00000 0 15946366.634 4969942.137 19267864.970 10 0 59864 56700.00000 0 13573739.785 5679941.120 20825403.510 10 0 59864 57600.00000 0 11103857.751 6622072.550 21978065.565 10 0 59864 58500.00000 0 8604293.632 7790390.963 22703436.093 10 0 59864 59400.00000 0 6141487.921 9166713.954 22987411.076 10 0 59864 60300.00000 0 3778169.965 10721216.681 22824471.786 10 0 59864 61200.00000 0 1570947.360 12413531.022 22217791.894 10 0 59864 62100.00000 0 -431836.932 14194304.136 21179175.445 10 0 59864 63000.00000 0 -2191891.179 16007151.816 19728826.847 10 0 59864 63900.00000 0 -3682331.489 17790925.243 17894957.264 10 0 59864 64800.00000 0 -4888552.958 19482196.580 15713234.922 10 0 59864 65700.00000 0 -5808580.139 21017859.417 13226089.845 10 0 59864 66600.00000 0 -6452883.476 22337735.003 10481886.511 10 0 59864 67500.00000 0 -6843670.912 23387074.883 7533980.526 10 0 59864 68400.00000 0 -7013685.910 24118854.701 4439677.810 10 0 59864 69300.00000 0 -7004563.997 24495762.624 1259116.935 10 0 59864 70200.00000 0 -6864818.542 24491798.701 -1945903.262 10 0 59864 71100.00000 0 -6647542.116 24093417.864 -5113127.484 10 0 59864 72000.00000 0 -6407921.662 23300168.540 -8181055.250 10 0 59864 72900.00000 0 -6200673.439 22124800.187 -11090135.681 10 0 59864 73800.00000 0 -6077506.830 20592835.338 -13783922.435 10 0 59864 74700.00000 0 -6084724.671 18741624.324 -16210166.184 10 0 59864 75600.00000 0 -6261061.670 16618922.308 -18321823.784 10 0 59864 76500.00000 0 -6635852.293 14281048.114 -20077964.996 10 0 59864 77400.00000 0 -7227605.374 11790701.523 -21444559.789 10 0 59864 78300.00000 0 -8043045.598 9214529.626 -22395131.797 10 0 59864 79200.00000 0 -9076662.375 6620542.834 -22911266.074 10 0 59864 80100.00000 0 -10310785.493 4075487.213 -22982961.979 10 0 59864 81000.00000 0 -11716184.987 1642281.253 -22608824.963 10 0 59864 81900.00000 0 -13253171.033 -622377.677 -21796093.778 10 0 59864 82800.00000 0 -14873148.748 -2670138.910 -20560502.606 10 0 59864 83700.00000 0 -16520564.026 -4462769.013 -18925980.482 10 0 59864 84600.00000 0 -18135160.091 -5973494.819 -16924193.223 10 0 59864 85500.00000 0 -19654451.281 -7187863.938 -14593936.083 99